• In Czech Republic
  • List of Countries
  • For 7 days
  • Water Temperature
  • Satellite Maps
  • Weather Map
  • Weather Widgets
  • user-avatar
    Login

    Hourly Weather Stubienko

    Today, 25 September, Tuesday

    Time Temperature Precipitation Wind Pressure Humidity
    00:00 +5°C° 0 mm 6 mps 749 mmHg 77%
    01:00 +5°C° 0 mm 6 mps 749 mmHg 78%
    02:00 +5°C° 0 mm 4 mps 750 mmHg 84%
    03:00 +5°C° 0 mm 5 mps 750 mmHg 84%
    04:00 +5°C° 0 mm 5 mps 751 mmHg 84%
    05:00 +3°C° 0 mm 6 mps 751 mmHg 84%
    06:00 +3°C° 0 mm 6 mps 752 mmHg 82%
    07:00 +4°C° 0 mm 6 mps 752 mmHg 81%
    08:00 +4°C° 0 mm 7 mps 753 mmHg 78%
    09:00 +5°C° 0 mm 7 mps 753 mmHg 73%
    10:00 +8°C° 0 mm 7 mps 754 mmHg 67%
    11:00 +9°C° 0 mm 7 mps 754 mmHg 62%
    12:00 +9°C° 0.2 mm 7 mps 754 mmHg 59%
    13:00 +10°C° 0.2 mm 7 mps 755 mmHg 57%
    14:00 +10°C° 0.2 mm 7 mps 755 mmHg 54%
    15:00 +10°C° 0.1 mm 6 mps 755 mmHg 56%
    16:00 +10°C° 0.1 mm 6 mps 755 mmHg 58%
    17:00 +9°C° 0.1 mm 5 mps 756 mmHg 60%
    18:00 +8°C° 0 mm 4 mps 756 mmHg 63%
    19:00 +7°C° 0 mm 4 mps 757 mmHg 66%
    20:00 +7°C° 0 mm 3 mps 757 mmHg 69%
    21:00 +7°C° 0 mm 3 mps 758 mmHg 69%
    22:00 +5°C° 0 mm 3 mps 758 mmHg 69%
    23:00 +5°C° 0 mm 3 mps 759 mmHg 69%

    Tomorrow, 26 September, Wednesday

    Time Temperature Precipitation Wind Pressure Humidity
    00:00 +4°C° 0 mm 3 mps 759 mmHg 72%
    01:00 +4°C° 0 mm 3 mps 760 mmHg 74%
    02:00 +4°C° 0 mm 2 mps 760 mmHg 77%
    03:00 +4°C° 0 mm 2 mps 760 mmHg 79%
    04:00 +3°C° 0 mm 2 mps 760 mmHg 81%
    05:00 +3°C° 0 mm 2 mps 760 mmHg 83%
    06:00 +4°C° 0 mm 2 mps 761 mmHg 80%
    07:00 +4°C° 0 mm 2 mps 761 mmHg 77%
    08:00 +5°C° 0 mm 2 mps 761 mmHg 74%
    09:00 +7°C° 0 mm 3 mps 761 mmHg 67%
    10:00 +9°C° 0 mm 3 mps 761 mmHg 60%
    11:00 +11°C° 0 mm 3 mps 761 mmHg 53%
    12:00 +12°C° 0 mm 3 mps 760 mmHg 51%
    13:00 +12°C° 0 mm 3 mps 760 mmHg 49%
    14:00 +13°C° 0 mm 3 mps 759 mmHg 47%
    15:00 +13°C° 0 mm 3 mps 759 mmHg 50%
    16:00 +14°C° 0 mm 2 mps 758 mmHg 53%
    17:00 +14°C° 0 mm 2 mps 758 mmHg 57%
    18:00 +13°C° 0 mm 2 mps 758 mmHg 58%
    19:00 +10°C° 0 mm 2 mps 757 mmHg 58%
    20:00 +9°C° 0 mm 3 mps 757 mmHg 59%
    21:00 +10°C° 0 mm 3 mps 757 mmHg 58%
    22:00 +10°C° 0 mm 4 mps 757 mmHg 56%
    23:00 +10°C° 0 mm 4 mps 757 mmHg 55%

    Day after tomorrow, 27 September, Thursday

    Time Temperature Precipitation Wind Pressure Humidity
    00:00 +9°C° 0 mm 5 mps 756 mmHg 55%
    01:00 +10°C° 0 mm 5 mps 756 mmHg 55%
    02:00 +10°C° 0 mm 5 mps 756 mmHg 55%
    03:00 +10°C° 0 mm 5 mps 755 mmHg 53%
    04:00 +10°C° 0 mm 6 mps 755 mmHg 51%
    05:00 +10°C° 0 mm 6 mps 755 mmHg 49%
    06:00 +10°C° 0 mm 6 mps 754 mmHg 49%
    07:00 +10°C° 0 mm 6 mps 754 mmHg 48%
    08:00 +10°C° 0 mm 6 mps 754 mmHg 48%
    09:00 +11°C° 0 mm 6 mps 754 mmHg 48%
    10:00 +13°C° 0 mm 6 mps 754 mmHg 48%
    11:00 +14°C° 0 mm 7 mps 754 mmHg 49%
    12:00 +15°C° 0 mm 7 mps 754 mmHg 49%
    13:00 +16°C° 0 mm 7 mps 754 mmHg 50%
    14:00 +17°C° 0 mm 7 mps 754 mmHg 51%
    15:00 +17°C° 0 mm 6 mps 753 mmHg 54%
    16:00 +17°C° 0 mm 5 mps 753 mmHg 56%
    17:00 +16°C° 0 mm 5 mps 753 mmHg 59%
    18:00 +15°C° 0 mm 4 mps 753 mmHg 60%
    19:00 +14°C° 0 mm 4 mps 753 mmHg 61%
    20:00 +13°C° 0 mm 4 mps 753 mmHg 61%
    21:00 +12°C° 0 mm 4 mps 753 mmHg 60%
    22:00 +12°C° 0 mm 4 mps 753 mmHg 60%
    23:00 +12°C° 0 mm 3 mps 753 mmHg 59%

    28 September, Friday

    Time Temperature Precipitation Wind Pressure Humidity
    00:00 +12°C° 0 mm 3 mps 752 mmHg 59%
    01:00 +11°C° 0 mm 3 mps 752 mmHg 59%
    02:00 +11°C° 0 mm 3 mps 751 mmHg 58%
    03:00 +11°C° 0 mm 3 mps 751 mmHg 58%
    04:00 +10°C° 0 mm 3 mps 750 mmHg 58%
    05:00 +10°C° 0 mm 3 mps 750 mmHg 57%
    06:00 +11°C° 0 mm 4 mps 750 mmHg 57%
    07:00 +11°C° 0 mm 4 mps 749 mmHg 56%
    08:00 +12°C° 0 mm 4 mps 749 mmHg 56%
    09:00 +14°C° 0 mm 5 mps 749 mmHg 53%
    10:00 +16°C° 0 mm 5 mps 748 mmHg 51%
    11:00 +19°C° 0 mm 5 mps 748 mmHg 48%
    12:00 +20°C° 0 mm 5 mps 747 mmHg 47%
    13:00 +21°C° 0 mm 6 mps 747 mmHg 47%
    14:00 +22°C° 0 mm 6 mps 746 mmHg 46%
    15:00 +21°C° 0 mm 5 mps 746 mmHg 49%
    16:00 +20°C° 0 mm 4 mps 746 mmHg 52%
    17:00 +19°C° 0 mm 4 mps 746 mmHg 55%
    18:00 +18°C° 0 mm 3 mps 746 mmHg 57%
    19:00 +16°C° 0 mm 3 mps 746 mmHg 59%
    20:00 +14°C° 0 mm 3 mps 746 mmHg 61%
    21:00 +14°C° 0 mm 2 mps 747 mmHg 66%
    22:00 +13°C° 0 mm 2 mps 747 mmHg 70%
    23:00 +12°C° 0 mm 2 mps 747 mmHg 75%

    29 September, Saturday

    Time Temperature Precipitation Wind Pressure Humidity
    00:00 +12°C° 0 mm 2 mps 747 mmHg 80%
    01:00 +10°C° 0 mm 2 mps 747 mmHg 86%
    02:00 +10°C° 0 mm 2 mps 747 mmHg 91%
    03:00 +10°C° 0 mm 2 mps 747 mmHg 90%
    04:00 +10°C° 0 mm 2 mps 748 mmHg 89%
    05:00 +12°C° 0 mm 1 mps 748 mmHg 88%
    06:00 +12°C° 0.1 mm 2 mps 748 mmHg 86%
    07:00 +12°C° 0.1 mm 2 mps 748 mmHg 84%
    08:00 +12°C° 0.1 mm 2 mps 749 mmHg 82%
    09:00 +12°C° 0.1 mm 3 mps 749 mmHg 75%
    10:00 +13°C° 0.1 mm 3 mps 749 mmHg 68%
    11:00 +13°C° 0.1 mm 4 mps 750 mmHg 61%
    12:00 +14°C° 0.1 mm 4 mps 750 mmHg 58%
    13:00 +14°C° 0.1 mm 4 mps 750 mmHg 55%
    14:00 +14°C° 0.1 mm 5 mps 750 mmHg 52%
    15:00 +14°C° 0 mm 4 mps 750 mmHg 55%
    16:00 +13°C° 0 mm 4 mps 750 mmHg 58%
    17:00 +13°C° 0 mm 4 mps 751 mmHg 61%
    18:00 +11°C° 0 mm 4 mps 751 mmHg 66%
    19:00 +10°C° 0 mm 4 mps 752 mmHg 72%
    20:00 +8°C° 0 mm 3 mps 752 mmHg 78%
    21:00 +8°C° 0 mm 3 mps 753 mmHg 79%
    22:00 +7°C° 0 mm 3 mps 753 mmHg 80%
    23:00 +7°C° 0 mm 3 mps 753 mmHg 81%

    30 September, Sunday

    Time Temperature Precipitation Wind Pressure Humidity
    00:00 +5°C° 0 mm 3 mps 753 mmHg 82%
    01:00 +5°C° 0 mm 3 mps 754 mmHg 83%
    02:00 +4°C° 0 mm 3 mps 754 mmHg 84%
    03:00 +4°C° 0 mm 3 mps 754 mmHg 85%
    04:00 +4°C° 0 mm 3 mps 754 mmHg 87%
    05:00 +3°C° 0 mm 3 mps 753 mmHg 88%
    06:00 +4°C° 0 mm 3 mps 753 mmHg 85%
    07:00 +5°C° 0 mm 3 mps 753 mmHg 81%
    08:00 +5°C° 0 mm 4 mps 753 mmHg 78%
    09:00 +7°C° 0 mm 4 mps 753 mmHg 70%
    10:00 +9°C° 0 mm 5 mps 753 mmHg 62%
    11:00 +12°C° 0 mm 5 mps 753 mmHg 54%
    12:00 +13°C° 0 mm 5 mps 752 mmHg 52%
    13:00 +14°C° 0 mm 5 mps 752 mmHg 51%
    14:00 +14°C° 0 mm 5 mps 751 mmHg 49%
    15:00 +14°C° 0 mm 5 mps 751 mmHg 52%
    16:00 +14°C° 0 mm 4 mps 750 mmHg 55%
    17:00 +13°C° 0 mm 4 mps 750 mmHg 58%
    18:00 +12°C° 0 mm 4 mps 750 mmHg 61%
    19:00 +10°C° 0 mm 4 mps 749 mmHg 64%
    20:00 +8°C° 0 mm 4 mps 749 mmHg 67%
    21:00 +9°C° 0 mm 3 mps 749 mmHg 67%
    22:00 +9°C° 0 mm 3 mps 749 mmHg 68%
    23:00 +8°C° 0 mm 3 mps 749 mmHg 69%
    Show more